{"data":{"norad_id":60347,"intl_designator":"2024-136U","name":"STARLINK-32084","alt_names":[],"object_type":"PAYLOAD","status":"ACTIVE","operator":null,"country":"US","launch_date":"2024-08-02","launch_site_code":"AFETR","launch_vehicle":null,"mission":null,"orbit_class":"UNKNOWN","rcs_meters":null,"size_class":null,"mass_kg":null,"dimensions":null,"purposes":["comms"],"wikipedia_slug":null,"has_3d_model":false,"image_url":null,"decayed_at":null,"tle_current":{"epoch":"2026-09-21T08:45:57.663072Z","epoch_age_seconds":110828,"freshness":"FRESH","line1":"1 60347U 24136U   26264.36525073  .00000369  00000+0  23660-4 0  9995","line2":"2 60347  53.1585 245.3314 0001080  76.8876 283.2246 15.31710645119643","mean_motion":15.31710645,"eccentricity":0.000108,"inclination_deg":53.1585,"raan_deg":245.3314,"arg_perigee_deg":76.8876,"mean_anomaly_deg":283.2246,"bstar":2.366e-5,"rev_number":11964,"period_min":94.012534593308,"perigee_km":469.96858792992,"apogee_km":471.44793850677,"semimajor_km":6848.8452632183,"source":"CELESTRAK","updated_at":"2026-09-22T09:00:49.222458Z"}}}